Wind_Speed
39 40 40 40 41 42 42 42 42 41 41 40 40 40 39 38 37 36 35 35 35 34 34 34 34 34 34 34 34 34 34 33 32 32 33 32 33 33 33 33 33 33 32
39 39 40 40 41 41 41 42 42 41 41 41 41 41 41 40 39 37 36 35 35 35 35 34 33 33 33 33 33 33 33 32 32 31 31 32 33 33 33 33 33 33 32
39 39 40 40 40 41 41 42 43 42 41 41 41 41 41 40 39 38 37 37 37 36 36 35 34 34 33 33 33 33 32 32 31 31 31 32 32 33 32 32 32 32 32
38 39 39 40 40 40 41 42 42 42 42 41 41 40 40 40 39 38 39 39 38 38 37 36 35 34 34 34 33 32 31 31 31 31 32 32 32 32 32 31 31 31 31
37 38 39 40 40 40 40 41 41 41 41 42 41 41 41 41 40 40 39 39 38 38 36 35 34 34 33 33 32 32 32 31 31 31 31 32 32 32 31 31 31 31 31
37 38 38 39 39 40 39 40 40 40 41 41 41 41 41 41 40 40 40 39 38 37 36 35 36 34 32 33 33 33 32 32 31 31 31 32 32 31 31 31 30 30 30
38 38 38 38 39 39 40 40 40 40 41 41 41 41 41 40 40 40 39 38 38 37 37 36 35 35 33 33 33 33 32 32 31 31 31 31 31 31 31 31 31 30 29
38 38 38 39 39 39 39 40 40 40 41 41 41 41 40 40 40 40 39 38 38 37 36 36 35 34 33 32 32 32 32 32 32 32 31 31 31 31 31 31 31 30 29
37 37 38 39 39 40 39 39 40 40 40 40 40 40 39 40 40 40 39 38 38 37 37 35 34 33 33 33 33 33 32 32 32 32 31 31 31 31 31 30 29 28 27
36 36 37 38 39 39 39 39 39 39 39 39 39 40 40 40 41 41 40 39 38 37 37 36 35 35 34 34 34 33 32 32 32 32 31 31 31 30 29 28 27 27 26
35 34 34 36 37 37 38 38 37 38 38 38 38 39 39 40 40 40 40 40 39 38 37 37 36 35 34 34 33 33 32 32 31 31 30 30 30 29 28 27 26 26 25
35 36 35 34 35 36 36 35 36 37 38 38 38 39 39 39 39 39 39 39 39 38 37 37 36 35 34 34 33 33 32 31 31 30 29 28 28 27 26 26 25 25 24
34 35 36 35 34 35 35 35 35 36 37 38 38 39 39 39 39 39 39 38 38 37 37 36 35 35 34 33 32 31 31 31 30 29 28 26 25 25 24 24 24 23 23
33 34 34 35 35 35 35 35 35 36 36 36 37 37 38 38 39 39 39 38 37 36 35 34 34 34 33 32 31 30 30 30 30 29 27 26 25 24 24 23 23 23 23
32 33 33 33 34 34 34 34 34 34 35 36 36 37 37 37 37 37 36 36 35 34 34 33 33 32 32 32 31 30 30 29 28 27 27 26 25 24 24 23 23 23 23
31 31 32 32 33 33 33 33 34 34 35 35 35 35 35 35 35 35 34 34 34 34 33 32 32 32 31 31 31 30 30 28 27 27 26 26 25 25 24 23 23 23 22
31 31 31 32 32 32 33 33 33 34 34 34 34 34 33 33 33 33 33 33 33 33 33 32 32 31 31 31 30 29 29 28 27 26 25 25 24 24 23 23 22 22 21
30 30 30 30 30 30 31 31 32 32 31 32 32 32 31 31 31 31 32 32 32 32 33 32 32 32 31 31 30 29 28 28 27 25 24 24 23 23 22 22 21 21 21
30 29 29 29 29 30 30 30 30 31 30 30 31 31 31 31 31 30 30 30 30 31 31 32 32 32 31 30 29 28 28 27 25 24 24 23 23 23 22 21 21 21 21
30 30 30 30 30 31 30 30 30 30 30 29 30 29 29 29 30 30 30 30 30 30 30 30 30 30 30 29 28 27 27 26 25 25 24 23 22 22 21 21 21 21 20
31 31 31 31 31 30 30 30 30 30 30 29 29 28 28 28 29 29 29 28 28 29 29 29 29 28 28 27 26 25 25 25 25 25 24 24 23 22 21 21 21 21 20
30 30 31 31 30 30 30 30 30 30 29 29 29 28 28 27 27 27 28 27 27 27 27 28 28 28 27 27 26 25 24 24 24 24 23 23 23 22 22 22 21 21 19
30 30 30 31 31 31 31 30 30 30 30 29 29 28 28 28 27 27 27 27 27 26 27 27 27 27 26 26 26 25 25 25 24 23 22 22 22 22 21 21 20 19 18
29 29 29 29 30 30 30 30 30 29 29 29 29 28 28 27 27 27 27 27 27 27 27 26 27 27 26 26 26 26 25 24 24 23 22 21 20 20 20 20 19 18 17
27 27 27 28 28 29 29 29 29 29 29 28 28 27 27 26 26 26 27 27 27 27 26 26 27 27 26 26 25 25 25 24 23 22 21 20 20 19 19 18 17 16 16
25 25 26 26 26 27 27 28 28 28 28 27 27 26 26 25 25 26 26 26 25 25 25 26 26 26 26 25 25 25 24 24 23 21 20 19 18 18 18 17 16 15 14
Wind_Direction
248 248 249 249 250 251 252 252 254 256 257 258 261 262 263 264 266 268 271 274 275 277 279 281 283 285 286 287 290 292 294 296 298 298 298 299 300 302 303 303 305 304 303
249 250 251 251 251 252 253 254 254 256 257 258 260 262 263 264 266 268 269 270 273 276 278 281 283 284 285 286 288 290 292 294 296 298 298 300 301 303 303 303 304 305 304
250 250 251 252 252 254 255 255 255 255 257 259 261 262 263 264 265 266 268 269 272 275 278 279 280 281 282 284 287 289 290 292 295 296 298 301 301 303 303 303 304 304 305
251 251 252 252 253 255 256 256 256 257 258 259 260 260 261 263 264 266 268 269 271 273 275 277 278 279 280 283 285 288 289 291 293 295 298 300 302 302 302 303 303 302 303
251 252 253 253 254 255 255 256 257 258 259 259 260 261 261 262 263 265 267 268 270 272 273 275 276 278 280 281 284 287 288 290 292 294 297 299 301 301 301 301 302 302 302
252 253 254 255 255 255 256 257 259 259 260 260 261 261 262 263 263 265 265 267 270 271 270 271 274 275 278 281 284 286 287 289 291 293 297 299 301 301 302 301 301 303 303
253 253 254 255 256 256 256 257 259 260 261 261 261 261 262 262 263 264 265 267 268 268 268 270 272 273 276 280 283 285 286 289 291 294 296 298 299 300 301 301 301 302 302
255 255 255 256 256 256 257 257 258 259 261 260 260 260 260 261 262 264 265 266 267 267 267 268 270 271 273 276 280 282 284 288 290 292 295 296 298 300 301 302 301 300 300
256 257 257 256 257 257 258 258 259 259 259 260 259 260 261 261 263 264 265 265 265 266 266 267 268 270 272 275 278 281 283 286 288 291 293 295 297 299 300 301 302 302 302
257 257 257 257 258 258 258 259 259 259 259 260 261 261 261 262 263 265 265 264 264 264 265 267 268 270 272 274 277 279 281 283 286 289 291 293 296 298 298 300 302 303 303
258 258 258 258 259 259 260 259 260 260 260 261 262 262 262 262 263 264 264 264 264 264 264 265 267 268 270 272 274 277 279 281 284 286 289 292 294 295 297 299 301 303 303
259 259 259 258 258 258 260 261 261 261 261 261 261 262 263 263 263 263 263 262 263 263 263 263 264 266 268 269 272 275 277 280 282 284 287 290 292 293 295 297 300 301 303
263 262 260 259 259 260 261 261 261 261 261 261 262 262 263 263 263 262 261 261 261 262 261 262 262 263 265 267 271 273 276 279 280 282 284 287 289 290 292 294 297 299 301
265 264 263 262 260 261 262 262 262 263 263 263 263 263 264 264 263 261 260 259 259 259 259 261 261 262 263 265 269 272 275 278 279 279 280 283 285 287 288 290 292 295 299
266 264 264 264 264 262 262 262 262 263 264 264 265 264 264 264 263 261 258 257 257 256 257 258 260 261 262 264 267 270 272 275 275 275 277 280 281 283 285 287 289 293 298
266 265 264 264 265 264 263 263 263 264 264 264 265 265 265 264 261 259 258 257 255 254 254 256 259 260 261 263 265 268 269 271 272 273 275 276 278 281 283 286 289 293 296
268 266 265 265 266 265 265 265 266 267 267 266 265 264 264 262 260 258 257 256 255 254 254 256 257 259 261 263 264 265 266 267 269 271 273 273 276 279 281 284 289 292 292
269 268 267 266 266 266 265 265 266 267 268 268 266 264 263 261 260 259 257 256 255 255 255 255 256 258 261 261 262 261 262 264 266 269 270 270 272 276 279 283 287 289 291
269 268 267 266 266 266 266 266 267 267 267 267 266 265 263 260 259 259 258 257 257 256 255 255 256 257 258 258 258 259 260 260 261 264 266 268 270 273 277 281 284 286 287
269 267 266 264 265 265 265 266 267 267 267 266 265 264 262 260 259 259 258 257 257 256 256 255 256 256 255 255 256 258 259 258 258 260 264 267 270 272 275 278 281 284 286
269 267 266 266 265 264 265 265 266 266 266 265 264 263 261 259 257 257 257 256 256 257 256 255 255 253 252 252 253 255 256 257 257 259 262 265 269 271 273 275 277 281 284
270 267 266 266 265 264 264 264 264 264 265 263 262 262 260 258 257 256 254 254 254 254 254 253 252 251 251 250 250 252 255 255 256 258 260 263 266 269 270 272 274 277 279
271 269 266 265 264 263 263 263 263 263 263 261 261 261 260 259 258 255 255 255 253 253 253 252 250 248 248 249 250 251 253 253 254 255 257 260 263 266 268 270 272 271 272
272 270 268 266 264 263 263 262 261 260 260 259 259 259 259 259 257 255 254 254 253 253 252 250 248 247 247 248 249 251 251 251 252 253 254 257 259 262 265 265 265 264 266
273 272 270 268 265 263 262 260 259 257 257 256 256 258 258 257 256 254 254 253 252 252 251 249 248 247 246 246 248 248 246 246 247 248 251 253 256 258 259 259 258 258 261
274 273 272 270 267 263 261 259 257 255 255 255 256 257 257 256 254 253 253 253 252 251 250 249 247 245 244 244 246 245 242 242 243 245 248 250 252 254 253 252 252 254 256
Height
5676 5679 5682 5684 5687 5689 5691 5694 5696 5698 5700 5701 5703 5704 5705 5706 5707 5708 5708 5708 5708 5708 5708 5707 5706 5705 5704 5702 5700 5697 5695 5692 5689 5687 5683 5679 5675 5671 5667 5663 5659 5656 5653
5668 5670 5673 5675 5677 5680 5682 5684 5686 5688 5690 5692 5693 5695 5696 5697 5698 5699 5699 5700 5700 5700 5699 5699 5698 5697 5695 5694 5692 5690 5687 5684 5682 5679 5676 5672 5668 5664 5660 5656 5653 5649 5646
5659 5661 5664 5666 5668 5670 5672 5674 5676 5678 5680 5682 5683 5685 5686 5687 5688 5689 5690 5690 5690 5690 5690 5690 5689 5688 5687 5685 5684 5682 5679 5677 5674 5671 5669 5665 5661 5657 5654 5650 5646 5643 5639
5649 5652 5654 5657 5659 5661 5662 5664 5666 5668 5670 5672 5673 5674 5676 5677 5678 5679 5680 5681 5681 5681 5681 5681 5680 5679 5678 5677 5676 5674 5671 5669 5667 5664 5661 5658 5654 5650 5647 5644 5640 5637 5634
5640 5643 5645 5647 5649 5651 5653 5654 5656 5658 5660 5661 5663 5664 5665 5667 5668 5669 5670 5671 5671 5672 5672 5672 5671 5670 5669 5668 5667 5665 5663 5661 5659 5657 5654 5651 5647 5644 5640 5637 5634 5631 5628
5631 5633 5635 5637 5639 5641 5643 5644 5646 5648 5649 5651 5652 5653 5655 5656 5657 5658 5659 5660 5661 5662 5662 5662 5662 5662 5661 5660 5658 5657 5655 5653 5651 5649 5646 5643 5640 5637 5633 5630 5627 5624 5622
5622 5624 5626 5628 5629 5631 5633 5634 5636 5638 5639 5641 5642 5643 5644 5645 5646 5648 5649 5650 5651 5652 5652 5653 5653 5653 5652 5651 5650 5648 5647 5645 5643 5641 5639 5636 5633 5630 5626 5623 5620 5617 5614
5612 5614 5616 5617 5619 5621 5623 5624 5626 5628 5629 5630 5631 5633 5634 5635 5636 5637 5638 5639 5640 5641 5642 5643 5643 5643 5643 5642 5641 5640 5639 5637 5636 5634 5631 5629 5625 5622 5619 5616 5613 5610 5607
5603 5605 5606 5608 5609 5611 5613 5614 5615 5617 5618 5619 5620 5622 5623 5624 5625 5626 5627 5628 5630 5631 5632 5633 5633 5634 5634 5634 5633 5632 5631 5629 5627 5625 5623 5621 5617 5614 5612 5609 5606 5603 5601
5594 5595 5596 5598 5599 5601 5602 5603 5605 5606 5607 5608 5609 5611 5612 5613 5614 5615 5616 5618 5620 5621 5622 5623 5624 5624 5624 5624 5624 5624 5623 5622 5620 5618 5616 5613 5610 5607 5605 5602 5600 5597 5595
5584 5585 5586 5588 5589 5590 5592 5593 5594 5595 5596 5598 5599 5600 5601 5602 5603 5604 5605 5607 5608 5610 5611 5612 5613 5614 5614 5615 5615 5615 5614 5613 5612 5610 5608 5606 5603 5601 5599 5596 5594 5592 5589
5575 5576 5576 5578 5579 5580 5581 5582 5583 5584 5585 5587 5588 5589 5590 5591 5592 5593 5594 5596 5597 5599 5600 5602 5603 5604 5605 5605 5606 5606 5605 5604 5603 5602 5601 5599 5597 5595 5593 5590 5588 5586 5583
5565 5566 5566 5567 5569 5570 5571 5572 5573 5573 5575 5576 5577 5578 5579 5580 5581 5582 5583 5584 5586 5588 5589 5591 5592 5594 5595 5596 5596 5597 5596 5596 5595 5594 5593 5592 5590 5588 5586 5584 5582 5580 5578
5556 5556 5557 5558 5559 5560 5561 5561 5562 5563 5564 5565 5566 5567 5568 5569 5569 5570 5571 5573 5575 5577 5579 5581 5582 5584 5585 5586 5587 5588 5588 5588 5587 5587 5586 5585 5583 5582 5580 5579 5577 5575 5573
5546 5547 5547 5548 5548 5550 5551 5551 5552 5553 5553 5555 5555 5556 5557 5558 5558 5559 5560 5562 5564 5567 5569 5571 5573 5574 5576 5577 5578 5579 5579 5579 5579 5579 5578 5578 5577 5576 5574 5573 5571 5569 5567
5537 5537 5538 5538 5539 5540 5541 5542 5542 5543 5543 5544 5545 5546 5546 5547 5547 5549 5550 5552 5554 5556 5559 5561 5563 5565 5567 5568 5569 5570 5571 5571 5571 5571 5571 5571 5570 5569 5568 5567 5565 5564 5562
5527 5528 5528 5529 5529 5530 5531 5532 5533 5533 5534 5534 5535 5535 5536 5537 5538 5539 5540 5542 5544 5546 5549 5552 5554 5556 5557 5559 5560 5561 5562 5563 5563 5563 5563 5563 5563 5563 5562 5561 5560 5558 5557
5518 5518 5519 5519 5520 5521 5521 5522 5523 5524 5524 5524 5525 5526 5526 5527 5528 5530 5531 5533 5535 5537 5540 5542 5544 5546 5548 5549 5551 5552 5553 5554 5555 5556 5556 5556 5556 5556 5556 5555 5554 5553 5552
5509 5509 5510 5510 5511 5511 5512 5513 5514 5514 5515 5516 5516 5516 5517 5518 5519 5521 5522 5524 5526 5528 5530 5532 5534 5536 5538 5540 5541 5543 5544 5546 5547 5548 5549 5550 5550 5550 5550 5549 5548 5548 5547
5500 5500 5500 5501 5502 5502 5503 5504 5505 5505 5506 5507 5507 5508 5508 5509 5511 5512 5514 5516 5517 5519 5521 5523 5525 5527 5529 5531 5533 5534 5536 5538 5539 5541 5542 5543 5543 5543 5544 5543 5543 5542 5542
5490 5490 5491 5491 5492 5493 5494 5494 5495 5496 5497 5498 5498 5499 5500 5501 5502 5504 5505 5507 5509 5510 5512 5514 5516 5518 5520 5522 5524 5526 5528 5530 5532 5534 5535 5536 5536 5537 5537 5537 5537 5537 5536
5481 5481 5481 5482 5482 5483 5484 5485 5486 5487 5488 5489 5490 5490 5491 5493 5494 5495 5497 5498 5500 5502 5503 5505 5507 5510 5512 5514 5517 5519 5521 5523 5525 5527 5528 5529 5530 5531 5531 5531 5531 5531 5531
5471 5471 5472 5472 5473 5474 5474 5475 5476 5477 5478 5479 5481 5482 5483 5484 5485 5487 5488 5490 5492 5493 5495 5497 5499 5502 5504 5507 5509 5512 5514 5516 5518 5520 5521 5522 5523 5524 5525 5525 5525 5526 5526
5462 5462 5462 5462 5463 5464 5464 5465 5467 5468 5469 5470 5471 5473 5474 5475 5476 5478 5480 5481 5483 5485 5487 5489 5491 5494 5496 5499 5501 5504 5507 5509 5511 5513 5514 5516 5517 5518 5518 5519 5520 5520 5521
5453 5453 5452 5453 5453 5454 5455 5456 5457 5458 5460 5461 5462 5464 5465 5466 5468 5469 5471 5473 5475 5477 5478 5481 5483 5485 5488 5491 5494 5496 5499 5501 5504 5506 5508 5509 5511 5512 5513 5514 5514 5515 5516
5444 5444 5444 5444 5444 5444 5445 5446 5448 5449 5451 5452 5454 5455 5456 5458 5459 5461 5463 5464 5466 5468 5470 5472 5475 5477 5480 5483 5486 5489 5491 5494 5497 5499 5501 5503 5505 5506 5507 5509 5510 5511 5512